Tracking 31027 objects as of 19-Jul-2025
HD Live streaming from Space Station
objects crossing your sky now

STARLINK-3332

Track STARLINK-3332 now!
10-day predictions
STARLINK-3332 is classified as:


NORAD ID: 50825
Int'l Code: 2022-001Y
Perigee: 546.0 km
Apogee: 547.7 km
Inclination: 53.2 °
Period: 95.4 minutes
Semi major axis: 6917 km
RCS: Unknown
Launch date: January 6, 2022
Source: United States (US)
Launch site: AIR FORCE EASTERN TEST RANGE (AFETR)
Your satellite tracking list
ATLAS 5 CENTAUR DEB
Track 1 satellite(s)




NASA's NSSDC Master Catalog

Two Line Element Set (TLE):
1 50825U 22001Y   25199.85320746 -.00004787  00000-0 -28275-3 0  9991
2 50825  53.2171 138.8544 0001245  79.4506 280.6626 15.08853480196375
Source of the keplerian elements: AFSPC